Hourly Weather Roundup
Issued by NWS Central Illinois

Home | Current Version | Previous Version | Text Only | Print | Product List | Glossary On
Versions: 1 2 3 4 5 6 7 8 9 10 11 12 13 14 15 16 17 18 19 20 21 22 23 24 25 26 27 28 29 30 31 32 33 34 35 36 37 38 39 40 41 42 43 44 45 46 47 48 49 50
000
NZUS43 KILX 220510
HWRILX

Area Weather Roundup
National Weather Service Lincoln IL
1200 AM CDT THU JUN 22 2017

NOTE:  "FAIR" indicates few or no clouds below 12,000 feet, with
       no sigificant weather and/or obstructions to visibility.


CITY           SKY/WX    TMP DP  RH WIND       PRES   REMARKS
Bloomington    CLOUDY    75  70  84 S12       29.91S
Champaign      PTCLDY    75  69  81 S8        29.93R
Danville       PTCLDY    75  70  83 S8        29.91S
Decatur        PTCLDY    78  67  68 S12       29.92S HX  80
Effingham      PTCLDY    76  69  79 S5        29.97S
Flora          PTCLDY    75  70  83 S6        29.96S
Galesburg      CLOUDY    73  69  87 S6        29.86S
Jacksonville   PTCLDY    78  67  69 S9        29.89F HX  80
Lacon          CLOUDY    73  71  91 SE3       29.84S
Lawrenceville  PTCLDY    74  70  87 S7        29.97R
Litchfield     MOCLDY    74  69  85 S9        29.94S
$$


CITY           SKY/WX    TMP DP  RH WIND       PRES   REMARKS
Lincoln        PTCLDY    80  71  75 S6        29.89S HX  83
Macomb         CLOUDY    74  68  82 S8        29.88S
Mattoon        PTCLDY    77  70  79 S6        29.94R
Mt Carmel AP   PTCLDY    74  68  79 S3        29.97S
Olney-Noble AP PTCLDY    75  73  92 S6        29.97S
Paris AP       CLOUDY    73  69  89 S7        29.97R
Peoria         CLOUDY    78  70  76 S10       29.86F HX  80
Pontiac        CLOUDY    76  72  86 S7        29.88F
Rantoul        PTCLDY    76  72  87 S6        29.91F
Robinson       MOCLDY    74  69  85 S6        29.96S
Springfield    MOCLDY    81  70  69 S9        29.90S HX  84
Taylorville    PTCLDY    76  68  77 S8        29.93S
$$

...REGIONAL REPORTS...


CITY           SKY/WX    TMP DP  RH WIND       PRES   REMARKS
Chicago O`Hare CLOUDY    70  58  65 SE6       29.88S
Kankakee       PTCLDY    72  70  94 SE5       29.90S
Moline         CLOUDY    80  67  64 S6        29.82S HX  82
Mount Sterling PTCLDY    76  68  78 S9        29.87F
Mount Vernon   PTCLDY    74  68  81 CALM      29.97R
Pittsfield     PTCLDY    78  69  74 S7        29.91R HX  80
Quincy         PTCLDY    79  67  66 S9        29.87S HX  81
Rockford       CLOUDY    72  63  73 SE3       29.86S
$$


CITY           SKY/WX    TMP DP  RH WIND       PRES   REMARKS
Burlington     PTCLDY    77  68  73 S9        29.84S
Cedar Rapids   CLEAR     73  71  93 S8        29.80R
Des Moines     CLEAR     78  65  63 S12       29.77R HX  80
Kirksville     CLEAR     75  66  73 S10       29.86S
Ottumwa        CLEAR     75  67  76 S7        29.81R
St Louis       MOCLDY    82  68  62 S6        29.93S HX  85
$$


CITY           SKY/WX    TMP DP  RH WIND       PRES   REMARKS
Terre Haute    PTCLDY    77  69  76 S8        29.96R
Evansville     CLEAR     76  67  73 S3        29.98F
Indianapolis   PTCLDY    76  70  82 S9        29.97R
Lafayette      CLOUDY    72  70  93 CALM      29.92F
Madison        CLOUDY    69  58  67 SE10      29.81F
Milwaukee      PTCLDY    65  55  70 S7        29.86F
$$






USA.gov is the U.S. government's official web portal to all federal, state and local government web resources and services.